OpenBCM V1.08-5-g2f4a (Linux)

Packet Radio Mailbox

IZ3LSV

[San Dona' di P. JN]

 Login: GUEST





  
LU9DCE > KEP      16.12.19 18:03l 245 Lines 12099 Bytes #999 (0) @ WW
BID : 5287_LU9DCE
Read: GUEST
Subj: TLE 16 12
Path: IZ3LSV<IQ5KG<I0OJJ<EA2RCF<LU9DCE
Sent: 191216/1600Z 5287@LU9DCE.TOR.BA.ARG.SOAM LinBPQ6.0.19

            __    _  _  ___  ____   ___  ____    ____  ____  ____
           (  )  / )( \/ _ \(    \ / __)(  __)  (  _ \(  _ \/ ___)
           / (_/\) \/ (\__  )) D (( (__  ) _)    ) _ ( ) _ (\___ \
           \____/\____/(___/(____/ \___)(____)  (____/(____/(____/
               ESTACION DE PACKET RADIO - BUENOS AIRES (GF05OM)
                   BOLETINES INFORMATIVOS PROGRAMADOS (BIP)
                      LINUX - HELLOCODELINUX@GMAIL.COM
+----------------------------------------------------------------------------+
OSCAR 7
1  7530U 74089B   19349.82986296 -.00000036  00000-0  54387-4 0  9990
2  7530 101.7727 315.8137 0012336   0.9513 112.9624 12.53641191 63099
OSCAR 11 (UoSAT 2)
1 14781U 84021B   19349.77098195 +.00000073 +00000-0 +15028-4 0  9998
2 14781 097.5991 005.8520 0009996 088.8861 271.3498 14.83127755904454
OSCAR 19 (LUSAT)
1 20442U 90005G   19349.89212074 -.00000001 +00000-0 +16104-4 0  9993
2 20442 098.6701 291.7507 0011483 343.8705 016.2111 14.32940509562128
EYESAT A
1 22825U 93061C   19349.80325493 -.00000012 +00000-0 +13214-4 0  9997
2 22825 098.9166 342.6748 0008218 187.7926 172.3129 14.30073530367426
ITAMSAT
1 22826U 93061D   19349.90282219 -.00000025 +00000-0 +84307-5 0  9993
2 22826 098.9106 342.7459 0008945 176.3794 183.7454 14.30407938367661
RADIO ROSTO
1 23439U 94085A   19349.91237158 -.00000053 +00000-0 -28998-3 0  9998
2 23439 064.8128 184.6835 0145900 077.9176 283.8053 11.27569352028216
JAS 2
1 24278U 96046B   19349.82647907 -.00000046  00000-0 -13741-4 0  9999
2 24278  98.5634 119.0439 0351050 132.9914 230.1223 13.53095054152163
TECHSAT 1B
1 25397U 98043D   19349.88952104 -.00000005 +00000-0 +17162-4 0  9990
2 25397 098.7088 287.9928 0000683 177.3465 182.7717 14.23676069113296
ISS (ZARYA)
1 25544U 98067A   19350.39276380 -.00000482  00000-0 -37826-6 0  9994
2 25544  51.6422 178.0027 0007468  41.7139  31.6337 15.50118790203529
PCSAT
1 26931U 01043C   19349.87852634 -.00000020 +00000-0 +24070-4 0  9998
2 26931 067.0515 258.7045 0007108 264.1249 095.9042 14.30561720950677
SAUDISAT 1C
1 27607U 02058C   19349.89299779 -.00000047 +00000-0 +14234-4 0  9993
2 27607 064.5544 218.6481 0069613 220.9548 138.6315 14.75595313913493
CUTE-1
1 27844U 03031E   19349.75814969 +.00000028 +00000-0 +32202-4 0  9990
2 27844 098.6835 355.2761 0009098 226.0308 134.0120 14.22210837853841
CUBESAT XI 4
1 27848U 03031J   19349.80176338  .00000019  00000-0  28356-4 0  9996
2 27848  98.6909 355.8535 0008841 238.8043 121.2268 14.21801664853736
MOZHAYETS 4
1 27939U 03042A   19350.41204327  .00000073  00000-0  21657-4 0  9995
2 27939  98.0654 122.9938 0012338 210.8961 149.1523 14.66823907867037
CUBESAT XI 5
1 28895U 05043F   19349.84556434  .00000121  00000-0  32136-4 0  9992
2 28895  97.9835 126.6905 0017688 140.1571 220.0934 14.63720725753836
CUTE-1.7+APD II
1 32785U 08021C   19350.06436269  .00000180  00000-0  25004-4 0  9994
2 32785  97.5592 341.3675 0013797  30.6270 329.5750 14.88389187630511
DELFI C3
1 32789U 08021G   19349.87650997 +.00001384 +00000-0 +95580-4 0  9994
2 32789 097.4431 033.9200 0011236 222.9405 137.0947 15.07324085634002
SEEDS
1 32791U 08021J   19349.44207939 +.00000183 +00000-0 +23872-4 0  9995
2 32791 097.5324 346.8868 0013385 005.9184 354.2191 14.90931996630896
YUBELEINY
1 32953U 08025A   19350.49182395  .00000037  00000-0  19437-3 0  9993
2 32953  82.5052  32.3223 0020434  96.0519 264.2893 12.43092937524773
PRISM (HITOMI)
1 33493U 09002B   19349.63092373  .00000882  00000-0  82444-4 0  9996
2 33493  98.1306 277.4604 0013935 312.3412  47.6627 14.96843902592068
KKS-1 (KISEKI)
1 33499U 09002H   19349.86178347 +.00000071 +00000-0 +18438-4 0  9995
2 33499 098.3336 194.1964 0009106 001.0434 359.0791 14.75488176585366
SWISSCUBE
1 35932U 09051B   19349.74627123  .00000109  00000-0  35681-4 0  9992
2 35932  98.5996 161.1786 0007166 341.1683  18.9248 14.56339721542987
BEESAT
1 35933U 09051C   19349.73862848 +.00000072 +00000-0 +27257-4 0  9996
2 35933 098.6009 162.9977 0005635 357.5780 002.5389 14.56421902543016
ITUPSAT 1
1 35935U 09051E   19349.96926316  .00000060  00000-0  25032-4 0  9990
2 35935  98.6117 163.4579 0007871 351.7367   8.3698 14.55574825542864
XIWANG-1 (HOPE-1)
1 36122U 09072B   19350.47466793 -.00000033  00000-0  23967-4 0  9994
2 36122 100.0806 344.4053 0006930 288.5508  71.4858 13.16352685480665
TISAT 1
1 36799U 10035E   19349.92073035  .00000427  00000-0  49037-4 0  9998
2 36799  98.1750 148.3239 0011655 209.9307 150.1245 14.91226071511620
JUGNU
1 37839U 11058B   19349.66207999 +.00000305 +00000-0 +20657-4 0  9991
2 37839 019.9622 323.4054 0019082 150.6236 005.7512 14.12666850422620
SRMSAT
1 37841U 11058D   19349.82842606 +.00000308 +00000-0 +23965-4 0  9990
2 37841 019.9733 022.8970 0011962 016.5070 140.7915 14.10645617422069
M-CUBED/EXP-1 PRIME
1 37855U 11061F   19349.82401906 +.00000681 +00000-0 +41960-4 0  9992
2 37855 101.7255 338.0080 0172150 262.7232 095.4384 15.05879328443410
HORYU 2
1 38340U 12025D   19349.86316890 +.00000133 +00000-0 +27458-4 0  9992
2 38340 098.3079 033.6550 0010257 269.5237 090.4796 14.75787295397321
STRAND 1
1 39090U 13009E   19349.87754055  .00000032  00000-0  26373-4 0  9991
2 39090  98.4691 192.6629 0010176 111.0003 249.2272 14.35110127356238
SOMP
1 39134U 13015E   19349.85870295 +.00000927 +00000-0 +50898-4 0  9992
2 39134 064.8616 156.5619 0037849 273.7278 085.9522 15.20574264367602
BEESAT 3
1 39135U 13015F   19349.90699507 +.00000592 +00000-0 +38563-4 0  9997
2 39135 064.8648 177.2667 0042746 276.6905 082.9357 15.17788839367202
BEESAT 2
1 39136U 13015G   19349.94699622  .00000740  00000-0  46713-4 0  9991
2 39136  64.8687 181.4978 0030703 282.8208  76.9487 15.17211865367514
CUBEBUG 1
1 39153U 13018D   19350.00269339  .00000182  00000-0  30642-4 0  9994
2 39153  97.9820  87.1581 0016276 338.4272  21.6253 14.80639016358495
ZACUBE
1 39417U 13066B   19349.74349415 +.00000168 +00000-0 +27377-4 0  9998
2 39417 097.5610 353.1147 0059355 162.2754 198.0549 14.81192259327697
TRITON 1
1 39427U 13066M   19349.82465339 +.00000136 +00000-0 +29948-4 0  9993
2 39427 097.7005 316.3047 0112697 309.3217 049.8040 14.67919383324577
GOMX 1
1 39430U 13066Q   19350.36787956  .00000210  00000-0  46665-4 0  9998
2 39430  97.7707 295.2347 0152183  44.9269 316.4131 14.59324058322955
HUMSAT D
1 39433U 13066T   19349.85627545 +.00000473 +00000-0 +51140-4 0  9995
2 39433 097.5318 029.7862 0031969 061.0652 299.3767 14.92326822328767
CUBEBUG 2
1 39440U 13066AA  19349.88827267  .00000132  00000-0  25451-4 0  9997
2 39440  97.6141 337.8006 0079220 218.8470 140.7031 14.75930540326552
FUNCUBE 1
1 39444U 13066AE  19349.91389486 +.00000202 +00000-0 +31025-4 0  9993
2 39444 097.5574 355.3830 0058665 154.8396 205.5696 14.82027338326031
UWE-3
1 39446U 13066AG  19349.78692077 +.00000138 +00000-0 +25035-4 0  9995
2 39446 097.5870 344.8773 0069665 191.2035 168.7630 14.78464514325288
SPROUT
1 39770U 14029E   19350.32239870  .00000433  00000-0  53807-4 0  9991
2 39770  97.8923  92.5393 0008254 206.5128 153.5679 14.87539087301686
UNISAT 6
1 40012U 14033C   19350.04206974  .00000125  00000-0  26039-4 0  9990
2 40012  97.7311 208.6344 0057112 235.1733 124.4096 14.74044590295251
DUCHIFAT 1
1 40021U 14033M   19350.04164981  .00000244  00000-0  30667-4 0  9995
2 40021  97.9324 275.2837 0012914 169.4183 190.7309 14.90762568298417
QB50P1
1 40025U 14033R   19350.06796520  .00000255  00000-0  33083-4 0  9998
2 40025  97.9100 269.4663 0012251 179.7683 180.3542 14.89037753298163
CHUBUSAT 1
1 40300U 14070C   19350.23113047  .00000424  00000-0  21285-4 0  9990
2 40300  97.3111  59.6942 0020860 137.9422 254.0339 15.22287251283486
NUDT-PHONESAT
1 40900U 15049B   19350.52537438  .00001707  00000-0  74692-4 0  9994
2 40900  97.4346 358.1315 0011072 271.7533 239.8182 15.23395659235183
ZDPS 2A
1 40901U 15049C   19350.45241441  .00000602  00000-0  32956-4 0  9993
2 40901  97.4604 353.7022 0012052 298.1980 200.3248 15.17978747234650
ZDPS 2B
1 40902U 15049D   19350.35742777  .00000889  00000-0  47183-4 0  9996
2 40902  97.4575 350.9653 0012030 295.8658 171.0115 15.17884698234613
XW-2A
1 40903U 15049E   19350.42287219  .00001407  00000-0  34474-4 0  9996
2 40903  97.3149  34.0266 0012522 204.0769 213.8578 15.42422898238105
KAITUO 1A
1 40904U 15049F   19350.39289638  .00000645  00000-0  37467-4 0  9998
2 40904  97.4711 349.3739 0013356 306.2480 161.4918 15.15538243234362
OBJECT G
1 40905U 15049G   19350.40478211  .00000486  00000-0  30008-4 0  9995
2 40905  97.4769 346.7538 0014255 301.0142 165.0319 15.14416356234220
XW-2C
1 40906U 15049H   19350.42743192  .00000474  00000-0  28206-4 0  9995
2 40906  97.4720 349.5787 0013412 296.6255 200.7025 15.15860042234376
XW-2D
1 40907U 15049J   19350.45189899  .00000453  00000-0  26968-4 0  9997
2 40907  97.4701 349.2886 0012703 292.8174 226.7108 15.16065854234394
LILACSAT 2
1 40908U 15049K   19350.45199050  .00000140  00000-0  11354-4 0  9994
2 40908  97.4841 347.8961 0014608 301.8316 216.1880 15.13913127234159
XW-2F
1 40910U 15049M   19350.50184416  .00000758  00000-0  41032-4 0  9994
2 40910  97.4649 351.6235 0013124 282.9587 234.5116 15.17594272234433
XW-2B
1 40911U 15049N   19350.41719461  .00000637  00000-0  36627-4 0  9999
2 40911  97.4718 349.9342 0012675 294.6116 171.4784 15.15995368234280
KAITUO 1B
1 40912U 15049P   19350.37878949  .00000883  00000-0  44216-4 0  9998
2 40912  97.4486 355.4243 0013260 261.4053 206.3868 15.19943746234758
TIANWANG 1C (TW-1C)
1 40926U 15051B   19350.39187316  .00011517  00000-0  14535-3 0  9995
2 40926  97.1124  36.5310 0008719  64.6546  59.7954 15.59688994238287
